Location: Lane
(33.5226°N, 79.8788°W)
Time: 09:07:54
(UTC+00:00)

Transit 2A Rocket - Pass Details

Date: 04 October 2022
Orbit: 589 x 911 km, 66.7° (Epoch: 04 December)

Event Time Altitude Azimuth Distance (km) Brightness Sun altitude
Exits shadow 09:38:57 - 184° (S) 2,606 7.6 -21.0°
Reaches altitude 10° 09:40:40 10° 177° (S) 1,947 7.0 -20.6°
Maximum altitude 09:44:38 36° 111° (ESE) 951 6.0 -19.8°
Drops below altitude 10° 09:48:32 10° 45° (NE) 1,916 7.8 -19.0°
Sets 09:50:54 0° 36° (NE) 2,826 8.6 -18.5°
